Погода в Тисуле

Россия / Кемеровская область (Кузбасс)     55°45′35″N   88°18′41″E
темп.,
°C
ветер,
м/с
пор.,
м/с
влажн.,
%
обл.,
%
осадки,
мм/ч
давл.,
гПа
погр.,
м
4 марта, чт
чт401:00−11юз3109096 0.1 1023290
04:00−13юз4118589 0.0 1024304
07:00−12юз3118469 0.0 1025313
10:00−10ююз4148391 0.0 1024779
13:00−7юз7157995 0.0 1023818
16:00−5юз61379100 0.0 10211023
19:00−6ююз51483100 0.0 1021770
22:00−6ююз61684100 0.0 1020707
5 марта, пт
пт501:00−6ююз51684100 0.0 1018711
04:00−6ююз51777100 0.0 1017642
07:00−5ююз51672100 0.0 1016723
10:00−3ююз4147497 0.0 1014782
13:00−1юз6167584 0.0 10131677
16:00−2юз7158379 0.1 10121284
19:00−3зюз6148784 0.2 10151121
22:00−4зюз7158094 0.1 10171070
6 марта, сб
сб601:00−5юз6148397 0.1 10181002
04:00−5юз71687100 0.4 10171389
07:00−5юз71584100 0.5 10181036
10:00−4юз71585100 0.1 10171143
13:00−3юз91682100 0.1 10171158
16:00−3юз91880100 0.1 10151268
19:00−3юз81876100 0.1 10151091
22:00−4зюз81779100 0.0 10141024
7 марта, вс
вс701:00−4юз71683100 0.1 1013945
04:00−5юз71683100 0.0 1012857
07:00−4юз81683100 0.1 1013852
10:00−3зюз7148496 0.0 10151066
13:00−2зюз7138298 0.1 10171186
16:00−1зюз51084100 0.0 1016977
19:00−3ююз3888100 0.0 1016250
22:00−3ююз4158496 0.0 1014732
8 марта, пн
пн801:00−2юз6168498 0.0 1013775
04:00−2юз71784100 0.0 1012745
07:00−2юз71883100 0.0 1013775
10:00−1юз81877100 0.0 1012932
13:000зюз8168299 0.0 1012998
16:000зюз71386100 0.0 10131075
19:00−1зюз5129299 0.2 1014726
22:00−2з4997100 0.9 1016498